Precipitable_Water
0.83 0.82 0.81 0.80 0.78 0.75 0.73 0.72 0.70 0.69 0.68 0.68 0.68 0.68 0.67 0.66 0.65 0.63 0.62 0.61 0.60 0.61 0.64 0.67 0.73 0.76 0.77 0.82 0.85 0.86 0.88 0.82 0.78 0.77 0.80 0.80 0.88 0.91 0.93 1.03 1.09 1.26 1.28 1.26 1.17 1.04 0.95 1.00 1.00 1.05 1.12 1.09 1.11 1.11 1.21 1.26 1.30 1.29 1.08 0.96 0.87 0.98 0.96 1.19 1.16 1.24 1.34 1.27 1.36 1.46 1.60 1.55 1.45 1.64 1.68 1.81 1.67 1.61 1.59 1.56 1.54 1.51 1.52 1.49 1.47 1.50 1.52 1.51
0.84 0.83 0.82 0.81 0.78 0.76 0.74 0.72 0.70 0.68 0.68 0.68 0.68 0.68 0.67 0.66 0.65 0.63 0.62 0.60 0.59 0.59 0.60 0.64 0.68 0.72 0.76 0.78 0.80 0.84 0.82 0.76 0.71 0.75 0.74 0.82 0.85 0.91 0.95 1.06 1.17 1.18 1.23 1.10 0.94 0.92 0.88 0.87 0.94 0.94 1.00 0.95 1.04 1.01 1.23 1.10 1.26 1.06 1.06 0.94 0.87 1.01 1.08 1.33 1.34 1.38 1.29 1.30 1.43 1.49 1.58 1.58 1.53 1.61 1.64 1.53 1.45 1.49 1.44 1.47 1.49 1.42 1.46 1.46 1.47 1.50 1.51 1.52
0.86 0.85 0.83 0.81 0.79 0.76 0.74 0.72 0.69 0.67 0.67 0.67 0.67 0.67 0.67 0.66 0.65 0.63 0.62 0.60 0.58 0.58 0.58 0.59 0.64 0.69 0.70 0.75 0.78 0.80 0.76 0.67 0.72 0.67 0.89 0.92 0.94 0.89 0.96 1.04 1.12 1.15 1.15 0.96 0.94 0.87 0.81 0.85 0.91 0.89 0.90 0.87 0.92 0.95 1.10 1.07 1.23 1.06 1.07 0.87 0.95 1.15 1.18 1.33 1.41 1.41 1.52 1.49 1.41 1.43 1.51 1.58 1.60 1.64 1.69 1.51 1.43 1.47 1.40 1.35 1.37 1.36 1.30 1.35 1.44 1.50 1.51 1.53
0.86 0.85 0.84 0.81 0.78 0.76 0.73 0.71 0.68 0.66 0.66 0.66 0.66 0.66 0.66 0.66 0.65 0.63 0.62 0.60 0.58 0.57 0.56 0.56 0.60 0.65 0.69 0.70 0.75 0.79 0.70 0.63 0.56 0.70 0.88 0.95 0.94 0.99 1.00 1.02 1.09 1.13 1.15 0.97 0.94 0.85 0.82 0.84 0.90 0.87 0.81 0.84 0.88 1.02 0.98 1.05 1.12 1.04 0.97 0.89 0.98 1.19 1.16 1.24 1.39 1.42 1.47 1.52 1.43 1.47 1.52 1.51 1.60 1.61 1.61 1.47 1.36 1.37 1.48 1.56 1.44 1.40 1.40 1.39 1.47 1.54 1.55 1.52
0.87 0.85 0.83 0.80 0.77 0.75 0.72 0.70 0.67 0.65 0.65 0.65 0.66 0.66 0.66 0.65 0.64 0.63 0.61 0.60 0.59 0.56 0.54 0.54 0.54 0.61 0.65 0.68 0.71 0.72 0.58 0.50 0.49 0.73 0.89 0.94 0.95 1.02 1.02 1.03 1.06 1.16 1.04 0.96 0.90 0.85 0.83 0.81 0.82 0.82 0.81 0.77 0.89 0.98 0.92 1.07 1.14 1.08 0.97 1.07 1.13 1.19 1.11 1.30 1.37 1.47 1.44 1.49 1.46 1.47 1.42 1.46 1.66 1.57 1.49 1.42 1.31 1.28 1.43 1.57 1.63 1.58 1.58 1.53 1.48 1.51 1.52 1.48
0.86 0.84 0.82 0.79 0.77 0.74 0.71 0.69 0.66 0.64 0.64 0.65 0.66 0.65 0.65 0.64 0.64 0.63 0.61 0.60 0.59 0.57 0.53 0.52 0.51 0.54 0.63 0.66 0.69 0.64 0.52 0.36 0.55 0.72 0.93 0.92 0.95 1.02 1.00 1.04 1.05 1.11 0.99 0.88 0.85 0.82 0.78 0.79 0.79 0.78 0.79 0.80 0.75 0.76 0.91 1.06 1.15 0.95 1.03 1.08 1.12 1.14 1.12 1.28 1.35 1.39 1.48 1.42 1.42 1.42 1.53 1.55 1.49 1.45 1.53 1.46 1.35 1.41 1.57 1.66 1.69 1.69 1.67 1.68 1.65 1.55 1.48 1.45
0.85 0.82 0.80 0.78 0.76 0.74 0.71 0.68 0.66 0.64 0.65 0.66 0.66 0.66 0.65 0.64 0.64 0.63 0.62 0.59 0.58 0.56 0.53 0.49 0.48 0.53 0.58 0.63 0.64 0.48 0.43 0.42 0.57 0.82 0.95 0.93 0.91 1.01 1.05 1.05 1.10 1.02 0.92 0.85 0.82 0.77 0.76 0.74 0.76 0.74 0.76 0.70 0.75 0.81 0.95 1.01 1.08 1.02 0.91 1.07 1.06 1.16 1.11 1.26 1.25 1.38 1.40 1.41 1.39 1.51 1.53 1.44 1.40 1.30 1.54 1.42 1.48 1.56 1.64 1.68 1.72 1.76 1.74 1.71 1.58 1.54 1.51 1.48
0.84 0.82 0.80 0.78 0.76 0.74 0.72 0.69 0.66 0.64 0.65 0.66 0.67 0.66 0.65 0.65 0.64 0.63 0.62 0.59 0.57 0.55 0.53 0.47 0.48 0.49 0.52 0.55 0.44 0.41 0.39 0.39 0.60 0.98 0.92 0.92 0.93 1.04 1.07 1.04 0.99 0.94 0.87 0.82 0.80 0.76 0.73 0.71 0.71 0.76 0.74 0.67 0.73 0.79 0.93 1.03 1.04 1.00 0.95 1.03 1.06 1.13 1.15 1.20 1.25 1.29 1.34 1.37 1.43 1.45 1.36 1.38 1.43 1.40 1.41 1.38 1.50 1.61 1.62 1.64 1.69 1.73 1.72 1.68 1.61 1.57 1.59 1.58
0.82 0.81 0.79 0.78 0.76 0.74 0.71 0.69 0.66 0.64 0.65 0.68 0.67 0.67 0.65 0.65 0.63 0.62 0.61 0.59 0.56 0.53 0.50 0.48 0.47 0.48 0.50 0.44 0.37 0.34 0.34 0.64 0.70 0.87 0.99 0.91 1.00 1.06 1.01 0.88 0.92 0.87 0.83 0.80 0.78 0.76 0.73 0.69 0.75 0.77 0.66 0.68 0.75 0.77 0.93 0.98 0.91 1.04 1.01 1.08 1.06 1.08 1.14 1.17 1.19 1.20 1.24 1.26 1.36 1.26 1.24 1.31 1.41 1.47 1.33 1.47 1.51 1.60 1.63 1.60 1.63 1.67 1.65 1.65 1.65 1.64 1.65 1.64
0.80 0.79 0.79 0.77 0.75 0.73 0.70 0.68 0.67 0.65 0.66 0.69 0.68 0.66 0.66 0.64 0.62 0.61 0.59 0.57 0.54 0.51 0.47 0.46 0.51 0.49 0.44 0.34 0.31 0.27 0.49 0.63 0.72 0.81 0.94 1.01 1.04 1.03 0.94 0.91 0.85 0.83 0.78 0.77 0.76 0.74 0.69 0.71 0.75 0.78 0.74 0.70 0.75 0.79 0.95 0.96 0.88 1.14 1.09 1.10 1.07 1.07 1.12 1.18 1.12 1.16 1.20 1.23 1.27 1.20 1.13 1.22 1.36 1.30 1.19 1.42 1.56 1.62 1.58 1.55 1.60 1.61 1.57 1.61 1.64 1.67 1.69 1.68
0.79 0.78 0.77 0.76 0.74 0.72 0.70 0.68 0.66 0.65 0.68 0.70 0.68 0.67 0.65 0.64 0.60 0.58 0.57 0.54 0.53 0.49 0.46 0.48 0.51 0.47 0.35 0.29 0.24 0.25 0.57 0.66 0.71 0.77 0.92 0.97 1.00 0.92 0.88 0.91 0.86 0.79 0.78 0.75 0.72 0.73 0.74 0.75 0.80 0.79 0.74 0.62 0.73 0.84 0.91 0.93 1.11 1.11 1.11 1.11 1.11 1.12 1.11 1.13 1.14 1.13 1.20 1.10 1.22 1.19 1.08 1.15 1.23 1.18 1.17 1.35 1.47 1.57 1.53 1.48 1.48 1.51 1.52 1.55 1.60 1.63 1.68 1.68
0.80 0.78 0.76 0.75 0.74 0.71 0.69 0.67 0.66 0.65 0.69 0.71 0.69 0.67 0.66 0.65 0.63 0.59 0.53 0.53 0.50 0.48 0.48 0.51 0.49 0.47 0.35 0.25 0.21 0.28 0.40 0.58 0.65 0.76 0.82 0.93 0.85 0.88 0.93 0.90 0.86 0.81 0.76 0.70 0.70 0.72 0.74 0.75 0.78 0.74 0.62 0.70 0.68 0.88 0.87 1.05 1.10 1.07 1.10 1.00 1.00 1.08 1.03 1.09 1.06 1.10 1.18 1.05 1.19 1.23 1.01 0.96 0.99 1.02 1.16 1.27 1.40 1.43 1.43 1.43 1.46 1.47 1.51 1.53 1.57 1.62 1.65 1.64
0.82 0.79 0.77 0.75 0.73 0.72 0.69 0.68 0.66 0.65 0.71 0.72 0.70 0.68 0.67 0.68 0.64 0.60 0.56 0.49 0.48 0.48 0.49 0.51 0.48 0.46 0.34 0.18 0.21 0.31 0.38 0.55 0.56 0.63 0.77 0.89 0.87 0.89 0.88 0.92 0.87 0.83 0.78 0.72 0.66 0.73 0.76 0.76 0.76 0.68 0.72 0.66 0.69 0.80 0.89 1.07 1.01 1.08 0.99 0.93 0.95 0.99 0.97 1.05 1.13 1.13 1.12 1.09 1.26 1.25 0.72 0.79 0.94 1.09 1.16 1.26 1.31 1.30 1.30 1.32 1.42 1.49 1.51 1.53 1.53 1.53 1.58 1.61
0.83 0.81 0.77 0.75 0.73 0.72 0.70 0.68 0.66 0.66 0.71 0.72 0.70 0.69 0.68 0.68 0.67 0.61 0.57 0.52 0.50 0.49 0.50 0.48 0.51 0.41 0.33 0.19 0.23 0.26 0.33 0.43 0.56 0.61 0.68 0.79 0.75 0.74 0.78 0.84 0.89 0.85 0.79 0.74 0.72 0.71 0.77 0.84 0.79 0.72 0.74 0.65 0.80 0.83 0.97 0.93 0.98 0.90 0.94 0.94 0.81 0.90 0.77 1.01 1.08 1.05 1.04 1.18 1.20 1.17 0.76 0.74 0.87 1.03 1.14 1.25 1.33 1.32 1.27 1.33 1.43 1.49 1.54 1.55 1.54 1.49 1.46 1.51
0.83 0.82 0.79 0.76 0.73 0.71 0.69 0.68 0.67 0.66 0.73 0.72 0.71 0.69 0.69 0.67 0.66 0.63 0.59 0.53 0.51 0.50 0.51 0.52 0.47 0.37 0.24 0.22 0.28 0.30 0.34 0.43 0.52 0.57 0.67 0.69 0.68 0.68 0.68 0.75 0.78 0.83 0.81 0.77 0.72 0.77 0.82 0.80 0.76 0.67 0.61 0.71 0.82 0.84 0.84 0.86 0.85 0.79 0.84 0.69 0.74 0.71 0.71 0.98 1.06 1.03 0.98 1.09 1.20 1.07 0.74 0.73 0.93 1.01 1.12 1.19 1.27 1.29 1.26 1.31 1.40 1.48 1.50 1.50 1.49 1.45 1.43 1.48
0.83 0.82 0.80 0.77 0.74 0.71 0.69 0.68 0.67 0.67 0.74 0.73 0.71 0.69 0.69 0.67 0.65 0.64 0.62 0.55 0.54 0.54 0.61 0.49 0.42 0.33 0.22 0.18 0.28 0.43 0.35 0.29 0.39 0.56 0.66 0.69 0.67 0.63 0.70 0.69 0.74 0.76 0.78 0.76 0.80 0.79 0.81 0.79 0.68 0.64 0.64 0.73 0.72 0.78 0.72 0.76 0.80 0.79 0.65 0.57 0.58 0.68 0.69 0.88 0.94 1.05 1.06 1.04 1.07 1.03 0.82 0.94 0.91 1.07 1.12 1.20 1.19 1.24 1.25 1.27 1.34 1.41 1.48 1.52 1.51 1.50 1.53 1.60
0.82 0.82 0.81 0.77 0.74 0.71 0.69 0.68 0.67 0.68 0.75 0.73 0.72 0.69 0.69 0.68 0.68 0.66 0.61 0.59 0.62 0.66 0.58 0.43 0.44 0.40 0.19 0.33 0.34 0.22 0.25 0.30 0.39 0.51 0.60 0.66 0.69 0.65 0.64 0.61 0.63 0.66 0.70 0.75 0.78 0.78 0.75 0.70 0.68 0.64 0.64 0.58 0.67 0.66 0.60 0.55 0.48 0.58 0.64 0.56 0.56 0.60 0.66 0.76 0.86 0.98 1.06 1.04 0.90 0.97 0.90 0.81 0.92 1.06 1.13 1.20 1.23 1.18 1.18 1.24 1.30 1.34 1.41 1.47 1.49 1.50 1.57 1.57
0.82 0.81 0.80 0.79 0.74 0.71 0.70 0.69 0.67 0.68 0.75 0.73 0.71 0.68 0.66 0.72 0.73 0.66 0.61 0.65 0.67 0.63 0.60 0.58 0.51 0.33 0.19 0.27 0.20 0.23 0.27 0.28 0.32 0.46 0.56 0.60 0.66 0.63 0.61 0.54 0.57 0.59 0.63 0.64 0.72 0.67 0.71 0.63 0.65 0.54 0.57 0.59 0.60 0.63 0.53 0.41 0.42 0.43 0.44 0.43 0.52 0.62 0.61 0.65 0.73 0.83 1.01 0.95 0.91 0.89 0.87 0.86 0.93 0.97 1.04 1.13 1.20 1.21 1.16 1.16 1.22 1.28 1.34 1.39 1.39 1.35 1.40 1.42
0.82 0.80 0.80 0.79 0.75 0.71 0.70 0.69 0.67 0.69 0.76 0.74 0.72 0.74 0.76 0.78 0.77 0.68 0.57 0.56 0.44 0.36 0.24 0.29 0.26 0.13 0.15 0.19 0.25 0.25 0.28 0.34 0.34 0.37 0.45 0.53 0.58 0.62 0.58 0.57 0.54 0.52 0.51 0.54 0.58 0.63 0.64 0.60 0.59 0.52 0.48 0.54 0.59 0.58 0.51 0.48 0.48 0.45 0.45 0.44 0.47 0.52 0.61 0.66 0.78 0.90 0.94 0.86 0.87 0.85 0.86 0.86 0.87 0.92 1.00 1.08 1.14 1.15 1.16 1.21 1.22 1.24 1.27 1.32 1.36 1.30 1.30 1.31
0.83 0.81 0.79 0.78 0.75 0.72 0.70 0.68 0.67 0.70 0.77 0.70 0.67 0.67 0.61 0.51 0.48 0.43 0.49 0.48 0.36 0.30 0.32 0.35 0.32 0.28 0.26 0.27 0.26 0.33 0.36 0.35 0.26 0.30 0.42 0.50 0.51 0.52 0.51 0.51 0.49 0.50 0.49 0.49 0.52 0.58 0.60 0.50 0.47 0.47 0.51 0.53 0.54 0.55 0.54 0.53 0.50 0.48 0.47 0.45 0.45 0.51 0.57 0.68 0.80 0.89 0.96 0.90 0.85 0.87 0.83 0.84 0.86 0.90 0.94 1.03 1.12 1.12 1.15 1.13 1.18 1.20 1.24 1.26 1.27 1.29 1.30 1.26
0.85 0.82 0.79 0.77 0.74 0.72 0.70 0.68 0.66 0.72 0.76 0.71 0.64 0.52 0.40 0.38 0.30 0.30 0.34 0.33 0.37 0.37 0.31 0.29 0.30 0.26 0.25 0.32 0.32 0.31 0.26 0.27 0.28 0.29 0.35 0.47 0.47 0.44 0.43 0.45 0.44 0.40 0.46 0.48 0.48 0.57 0.59 0.48 0.48 0.51 0.53 0.54 0.54 0.54 0.52 0.50 0.49 0.47 0.44 0.43 0.43 0.52 0.56 0.68 0.76 0.88 0.95 0.90 0.83 0.84 0.83 0.85 0.85 0.89 0.94 1.04 1.06 1.04 1.07 1.10 1.11 1.15 1.18 1.22 1.21 1.22 1.22 1.22
0.85 0.82 0.79 0.76 0.73 0.71 0.70 0.67 0.66 0.75 0.76 0.72 0.61 0.50 0.47 0.49 0.52 0.53 0.41 0.27 0.33 0.35 0.32 0.30 0.32 0.26 0.30 0.30 0.34 0.34 0.31 0.29 0.22 0.28 0.35 0.39 0.38 0.35 0.39 0.41 0.39 0.38 0.42 0.47 0.51 0.50 0.47 0.45 0.51 0.52 0.55 0.55 0.54 0.53 0.52 0.48 0.45 0.45 0.43 0.42 0.45 0.52 0.65 0.72 0.80 0.86 0.93 0.80 0.81 0.82 0.80 0.82 0.83 0.88 0.95 0.99 0.99 1.07 1.09 1.07 1.09 1.09 1.12 1.14 1.17 1.19 1.17 1.19
0.84 0.82 0.79 0.76 0.72 0.71 0.69 0.67 0.67 0.75 0.69 0.64 0.58 0.52 0.52 0.61 0.66 0.64 0.50 0.33 0.27 0.32 0.29 0.29 0.25 0.24 0.25 0.31 0.33 0.34 0.25 0.20 0.19 0.24 0.29 0.32 0.32 0.33 0.37 0.37 0.37 0.40 0.39 0.42 0.42 0.45 0.41 0.46 0.52 0.54 0.55 0.53 0.52 0.51 0.50 0.47 0.46 0.43 0.41 0.41 0.45 0.57 0.57 0.53 0.66 0.80 0.89 0.83 0.79 0.80 0.76 0.80 0.87 0.88 0.95 0.98 1.00 1.04 1.09 1.06 1.08 1.11 1.07 1.09 1.12 1.15 1.14 1.13
0.83 0.82 0.79 0.75 0.72 0.70 0.70 0.66 0.70 0.71 0.62 0.58 0.57 0.57 0.65 0.68 0.66 0.58 0.42 0.27 0.23 0.29 0.29 0.32 0.29 0.27 0.25 0.23 0.32 0.30 0.23 0.26 0.27 0.24 0.32 0.29 0.27 0.31 0.34 0.36 0.36 0.37 0.35 0.39 0.43 0.44 0.46 0.49 0.52 0.53 0.52 0.50 0.47 0.47 0.46 0.42 0.40 0.40 0.41 0.42 0.43 0.49 0.52 0.61 0.65 0.76 0.83 0.82 0.81 0.77 0.78 0.79 0.79 0.82 0.90 0.94 0.99 1.00 1.01 1.04 1.04 1.07 1.11 1.14 1.14 1.14 1.15 1.16
0.82 0.81 0.79 0.76 0.71 0.71 0.67 0.68 0.65 0.61 0.59 0.60 0.58 0.67 0.68 0.68 0.66 0.62 0.36 0.31 0.29 0.29 0.39 0.32 0.33 0.29 0.30 0.34 0.36 0.27 0.27 0.30 0.28 0.33 0.29 0.28 0.27 0.27 0.30 0.38 0.37 0.34 0.38 0.38 0.41 0.42 0.43 0.49 0.52 0.50 0.49 0.47 0.46 0.44 0.43 0.42 0.37 0.36 0.43 0.43 0.46 0.49 0.57 0.62 0.65 0.66 0.65 0.71 0.73 0.69 0.66 0.64 0.69 0.71 0.77 0.85 0.97 0.89 0.95 0.94 0.95 1.00 1.06 1.06 1.06 1.14 1.21 1.20
0.81 0.81 0.79 0.76 0.72 0.69 0.68 0.60 0.66 0.60 0.52 0.52 0.62 0.68 0.70 0.68 0.68 0.60 0.39 0.27 0.22 0.26 0.28 0.23 0.31 0.25 0.35 0.25 0.33 0.34 0.29 0.22 0.30 0.30 0.29 0.29 0.32 0.28 0.30 0.32 0.37 0.35 0.35 0.36 0.39 0.42 0.44 0.48 0.49 0.48 0.48 0.46 0.45 0.43 0.45 0.44 0.36 0.36 0.45 0.47 0.46 0.50 0.56 0.59 0.58 0.61 0.60 0.56 0.69 0.72 0.53 0.52 0.73 0.74 0.76 0.81 0.81 0.84 0.87 0.85 0.90 0.96 0.99 1.04 1.07 1.13 1.18 1.22
0.80 0.80 0.78 0.75 0.73 0.72 0.53 0.55 0.67 0.57 0.47 0.58 0.69 0.71 0.69 0.65 0.68 0.60 0.34 0.22 0.19 0.24 0.24 0.31 0.27 0.30 0.35 0.33 0.33 0.29 0.12 0.19 0.29 0.30 0.28 0.29 0.26 0.32 0.25 0.27 0.34 0.36 0.35 0.39 0.36 0.35 0.42 0.46 0.45 0.46 0.45 0.45 0.43 0.43 0.43 0.42 0.38 0.34 0.44 0.49 0.45 0.51 0.54 0.56 0.56 0.56 0.60 0.54 0.64 0.66 0.62 0.50 0.57 0.63 0.80 0.74 0.75 0.78 0.80 0.81 0.83 0.92 0.96 1.03 1.09 1.14 1.15 1.24
0.79 0.79 0.77 0.75 0.73 0.73 0.61 0.62 0.56 0.49 0.52 0.69 0.73 0.67 0.68 0.68 0.63 0.58 0.34 0.19 0.19 0.29 0.22 0.24 0.28 0.39 0.32 0.33 0.37 0.27 0.25 0.31 0.19 0.25 0.30 0.30 0.29 0.26 0.24 0.26 0.29 0.32 0.35 0.36 0.28 0.38 0.40 0.42 0.44 0.41 0.42 0.42 0.43 0.42 0.41 0.43 0.37 0.39 0.47 0.47 0.49 0.53 0.58 0.57 0.56 0.57 0.57 0.52 0.58 0.60 0.60 0.56 0.55 0.64 0.80 0.70 0.73 0.76 0.73 0.76 0.82 0.86 0.96 1.02 1.10 1.13 1.16 1.23
0.77 0.77 0.75 0.73 0.72 0.74 0.75 0.64 0.58 0.51 0.69 0.73 0.69 0.69 0.67 0.66 0.57 0.40 0.28 0.17 0.28 0.29 0.38 0.24 0.39 0.33 0.32 0.33 0.31 0.30 0.28 0.28 0.22 0.29 0.29 0.30 0.29 0.30 0.21 0.26 0.29 0.30 0.31 0.33 0.34 0.35 0.37 0.40 0.40 0.41 0.41 0.41 0.39 0.42 0.44 0.43 0.36 0.51 0.53 0.51 0.53 0.57 0.58 0.54 0.55 0.55 0.56 0.45 0.50 0.52 0.57 0.46 0.52 0.60 0.83 0.65 0.62 0.66 0.69 0.71 0.80 0.88 0.93 1.02 1.06 1.09 1.12 1.21
0.76 0.74 0.73 0.72 0.71 0.70 0.68 0.70 0.58 0.70 0.75 0.72 0.68 0.68 0.65 0.57 0.47 0.30 0.20 0.16 0.30 0.21 0.27 0.30 0.27 0.25 0.30 0.26 0.26 0.29 0.25 0.26 0.27 0.30 0.30 0.27 0.28 0.27 0.28 0.32 0.28 0.27 0.28 0.32 0.34 0.31 0.32 0.39 0.43 0.42 0.41 0.39 0.39 0.44 0.46 0.44 0.46 0.52 0.56 0.53 0.51 0.53 0.54 0.53 0.52 0.55 0.50 0.46 0.49 0.46 0.52 0.50 0.46 0.50 0.61 0.61 0.64 0.65 0.66 0.73 0.79 0.86 0.94 1.00 1.04 1.09 1.17 1.19
0.73 0.72 0.72 0.74 0.61 0.68 0.68 0.55 0.65 0.72 0.74 0.71 0.69 0.65 0.63 0.53 0.37 0.29 0.20 0.27 0.30 0.26 0.30 0.26 0.24 0.28 0.26 0.24 0.21 0.26 0.28 0.27 0.26 0.28 0.24 0.26 0.25 0.25 0.25 0.23 0.27 0.24 0.25 0.26 0.28 0.31 0.31 0.35 0.39 0.43 0.45 0.44 0.43 0.43 0.47 0.49 0.53 0.53 0.53 0.52 0.47 0.41 0.49 0.47 0.50 0.51 0.39 0.40 0.50 0.49 0.49 0.56 0.46 0.52 0.62 0.71 0.69 0.68 0.66 0.71 0.75 0.86 0.94 0.95 1.02 1.10 1.15 1.20
0.71 0.71 0.73 0.70 0.75 0.85 0.62 0.57 0.67 0.75 0.71 0.69 0.65 0.59 0.50 0.37 0.38 0.31 0.31 0.38 0.27 0.27 0.27 0.22 0.25 0.25 0.25 0.27 0.25 0.22 0.22 0.24 0.26 0.24 0.24 0.21 0.22 0.20 0.19 0.17 0.20 0.17 0.17 0.20 0.21 0.26 0.26 0.29 0.36 0.39 0.44 0.42 0.40 0.39 0.44 0.47 0.50 0.48 0.49 0.44 0.40 0.44 0.37 0.39 0.43 0.42 0.43 0.34 0.43 0.50 0.53 0.53 0.49 0.51 0.66 0.70 0.70 0.63 0.68 0.80 0.84 0.78 0.77 0.95 1.03 1.06 1.14 1.21
0.70 0.71 0.74 0.84 0.89 0.80 0.81 0.81 0.79 0.73 0.69 0.66 0.59 0.60 0.44 0.36 0.30 0.35 0.32 0.33 0.33 0.34 0.27 0.25 0.23 0.24 0.26 0.24 0.24 0.25 0.26 0.21 0.24 0.25 0.26 0.26 0.23 0.22 0.22 0.19 0.23 0.19 0.15 0.18 0.18 0.18 0.20 0.26 0.29 0.35 0.40 0.42 0.41 0.36 0.40 0.37 0.43 0.45 0.41 0.42 0.34 0.31 0.31 0.28 0.37 0.34 0.32 0.46 0.49 0.47 0.54 0.43 0.51 0.62 0.70 0.70 0.68 0.66 0.70 0.77 0.85 0.91 0.94 0.94 1.01 1.04 1.12 1.17
0.70 0.74 0.83 0.90 0.86 0.84 0.85 0.86 0.77 0.73 0.63 0.62 0.59 0.50 0.45 0.35 0.34 0.42 0.39 0.37 0.39 0.39 0.33 0.25 0.24 0.24 0.24 0.21 0.24 0.25 0.19 0.24 0.23 0.23 0.23 0.24 0.21 0.21 0.21 0.20 0.21 0.19 0.19 0.21 0.15 0.15 0.14 0.15 0.21 0.28 0.31 0.38 0.39 0.40 0.37 0.38 0.42 0.44 0.48 0.43 0.40 0.38 0.31 0.27 0.30 0.30 0.39 0.41 0.42 0.50 0.40 0.41 0.41 0.63 0.72 0.73 0.72 0.68 0.72 0.80 0.86 0.90 0.97 1.00 1.05 1.08 1.08 1.18
0.72 0.85 0.89 0.87 0.84 0.84 0.84 0.82 0.77 0.73 0.66 0.62 0.50 0.45 0.35 0.33 0.37 0.38 0.38 0.39 0.40 0.40 0.36 0.31 0.25 0.22 0.21 0.23 0.27 0.25 0.25 0.21 0.22 0.23 0.21 0.21 0.19 0.19 0.21 0.19 0.18 0.19 0.17 0.13 0.15 0.15 0.13 0.15 0.20 0.27 0.34 0.36 0.36 0.43 0.42 0.38 0.39 0.44 0.47 0.47 0.38 0.36 0.43 0.30 0.37 0.34 0.35 0.40 0.39 0.40 0.40 0.49 0.52 0.73 0.77 0.78 0.72 0.67 0.75 0.77 0.81 0.86 0.93 0.94 1.02 1.01 1.10 1.18
0.74 0.84 0.89 0.80 0.80 0.87 0.90 0.84 0.76 0.72 0.64 0.52 0.44 0.36 0.34 0.39 0.36 0.40 0.43 0.46 0.41 0.38 0.34 0.30 0.27 0.22 0.20 0.21 0.25 0.24 0.26 0.24 0.22 0.21 0.20 0.19 0.22 0.19 0.21 0.21 0.19 0.18 0.18 0.13 0.20 0.12 0.13 0.13 0.20 0.23 0.29 0.32 0.36 0.40 0.42 0.42 0.33 0.42 0.40 0.35 0.38 0.46 0.38 0.38 0.34 0.34 0.33 0.28 0.33 0.41 0.41 0.52 0.64 0.68 0.75 0.76 0.69 0.65 0.69 0.76 0.81 0.88 0.89 0.91 0.97 1.01 1.08 1.18
0.72 0.83 0.75 0.81 0.83 0.92 0.93 0.88 0.84 0.78 0.63 0.53 0.43 0.34 0.41 0.41 0.47 0.43 0.46 0.43 0.41 0.39 0.31 0.23 0.24 0.22 0.18 0.19 0.21 0.21 0.23 0.22 0.22 0.19 0.19 0.20 0.19 0.20 0.20 0.21 0.22 0.21 0.20 0.17 0.19 0.19 0.16 0.12 0.15 0.19 0.21 0.29 0.39 0.43 0.43 0.43 0.42 0.43 0.37 0.40 0.45 0.45 0.44 0.36 0.29 0.40 0.31 0.29 0.43 0.34 0.32 0.40 0.40 0.53 0.74 0.69 0.66 0.61 0.63 0.75 0.84 0.89 0.87 0.87 0.95 1.02 1.09 1.15
0.70 0.76 0.77 0.79 0.86 0.96 0.94 0.89 0.86 0.76 0.63 0.48 0.38 0.42 0.52 0.43 0.48 0.46 0.47 0.43 0.40 0.33 0.29 0.26 0.27 0.26 0.19 0.19 0.18 0.19 0.21 0.18 0.21 0.18 0.21 0.20 0.19 0.23 0.19 0.19 0.22 0.21 0.22 0.22 0.21 0.23 0.16 0.14 0.18 0.19 0.22 0.28 0.38 0.41 0.40 0.42 0.43 0.42 0.42 0.51 0.36 0.34 0.29 0.34 0.29 0.24 0.26 0.28 0.29 0.34 0.30 0.33 0.39 0.56 0.64 0.61 0.63 0.56 0.61 0.67 0.66 0.82 0.81 0.87 0.92 0.98 1.08 1.14
0.73 0.71 0.62 0.76 0.97 1.01 0.94 0.91 0.81 0.68 0.57 0.43 0.43 0.44 0.50 0.51 0.54 0.51 0.52 0.48 0.42 0.37 0.28 0.26 0.24 0.22 0.23 0.18 0.20 0.20 0.21 0.18 0.22 0.20 0.19 0.21 0.17 0.25 0.22 0.21 0.21 0.21 0.22 0.24 0.18 0.22 0.18 0.14 0.18 0.21 0.22 0.29 0.35 0.37 0.32 0.35 0.40 0.44 0.46 0.43 0.44 0.37 0.37 0.36 0.29 0.33 0.29 0.28 0.27 0.37 0.27 0.34 0.41 0.62 0.64 0.60 0.63 0.56 0.59 0.62 0.63 0.75 0.81 0.86 0.92 0.98 1.06 1.13
0.64 0.58 0.59 0.83 0.96 1.00 0.98 0.83 0.69 0.62 0.51 0.46 0.48 0.52 0.54 0.50 0.54 0.56 0.56 0.51 0.41 0.35 0.32 0.24 0.23 0.21 0.20 0.22 0.22 0.20 0.21 0.23 0.22 0.22 0.21 0.26 0.19 0.29 0.24 0.25 0.24 0.23 0.23 0.24 0.22 0.22 0.20 0.17 0.21 0.21 0.24 0.28 0.28 0.33 0.34 0.35 0.34 0.37 0.37 0.37 0.37 0.35 0.42 0.36 0.40 0.31 0.31 0.33 0.32 0.28 0.26 0.38 0.41 0.54 0.63 0.63 0.64 0.59 0.61 0.65 0.73 0.84 0.84 0.90 0.92 1.01 1.08 1.13
0.67 0.62 0.65 0.86 0.94 1.02 0.92 0.70 0.58 0.52 0.51 0.53 0.56 0.55 0.54 0.51 0.56 0.58 0.58 0.56 0.48 0.48 0.38 0.31 0.24 0.22 0.21 0.22 0.22 0.25 0.24 0.23 0.23 0.23 0.22 0.24 0.24 0.22 0.24 0.26 0.25 0.25 0.24 0.24 0.23 0.23 0.19 0.18 0.22 0.22 0.20 0.23 0.30 0.37 0.37 0.36 0.37 0.40 0.39 0.37 0.38 0.34 0.32 0.27 0.29 0.37 0.32 0.29 0.31 0.26 0.29 0.34 0.48 0.58 0.67 0.66 0.67 0.64 0.67 0.67 0.65 0.83 0.88 0.94 0.96 1.04 1.10 1.11
0.54 0.45 0.59 0.88 0.97 0.96 0.72 0.49 0.49 0.55 0.52 0.51 0.55 0.59 0.55 0.64 0.59 0.56 0.56 0.55 0.52 0.47 0.48 0.39 0.34 0.34 0.29 0.27 0.28 0.27 0.26 0.24 0.24 0.23 0.24 0.23 0.26 0.25 0.28 0.28 0.27 0.27 0.24 0.20 0.20 0.23 0.22 0.22 0.22 0.22 0.21 0.24 0.31 0.33 0.38 0.37 0.36 0.37 0.38 0.40 0.43 0.40 0.36 0.33 0.27 0.32 0.32 0.32 0.31 0.31 0.24 0.44 0.57 0.58 0.65 0.70 0.69 0.69 0.72 0.66 0.67 0.84 0.85 0.91 1.01 1.03 1.08 1.14
0.49 0.54 0.80 0.90 0.94 0.84 0.59 0.45 0.46 0.52 0.52 0.59 0.67 0.65 0.67 0.63 0.60 0.59 0.55 0.54 0.52 0.54 0.50 0.48 0.45 0.43 0.41 0.38 0.36 0.34 0.30 0.26 0.26 0.23 0.25 0.24 0.25 0.27 0.28 0.26 0.28 0.27 0.26 0.25 0.22 0.25 0.24 0.20 0.18 0.22 0.26 0.27 0.29 0.31 0.33 0.34 0.34 0.33 0.35 0.38 0.37 0.36 0.37 0.35 0.32 0.35 0.31 0.36 0.27 0.32 0.28 0.44 0.56 0.60 0.66 0.76 0.73 0.72 0.75 0.72 0.83 0.85 0.93 1.01 1.01 1.04 1.07 1.14
0.48 0.53 0.65 0.88 0.94 0.82 0.55 0.41 0.42 0.48 0.53 0.62 0.64 0.63 0.68 0.66 0.62 0.57 0.56 0.56 0.54 0.53 0.53 0.50 0.49 0.51 0.47 0.47 0.46 0.42 0.39 0.30 0.30 0.30 0.26 0.27 0.26 0.29 0.28 0.27 0.27 0.26 0.23 0.24 0.19 0.25 0.18 0.20 0.21 0.20 0.21 0.23 0.24 0.27 0.28 0.31 0.31 0.29 0.30 0.31 0.35 0.38 0.38 0.37 0.37 0.38 0.30 0.34 0.29 0.29 0.25 0.47 0.55 0.60 0.63 0.75 0.71 0.70 0.74 0.82 0.89 0.89 0.99 0.99 0.99 1.05 1.12 1.15
0.52 0.57 0.62 0.73 0.87 0.77 0.52 0.51 0.50 0.51 0.54 0.55 0.58 0.57 0.60 0.66 0.66 0.62 0.60 0.56 0.59 0.56 0.54 0.49 0.52 0.51 0.48 0.48 0.45 0.45 0.38 0.35 0.32 0.28 0.28 0.25 0.26 0.27 0.28 0.27 0.28 0.26 0.26 0.27 0.23 0.26 0.18 0.25 0.19 0.20 0.19 0.18 0.17 0.18 0.22 0.26 0.29 0.30 0.30 0.32 0.34 0.36 0.36 0.34 0.29 0.33 0.26 0.39 0.31 0.29 0.35 0.50 0.55 0.59 0.60 0.67 0.69 0.70 0.77 0.71 0.86 1.01 0.99 0.97 0.99 1.07 1.14 1.16
0.45 0.41 0.51 0.59 0.70 0.71 0.65 0.68 0.60 0.55 0.56 0.57 0.57 0.57 0.60 0.59 0.65 0.68 0.64 0.60 0.61 0.59 0.56 0.54 0.54 0.52 0.48 0.45 0.43 0.42 0.42 0.41 0.40 0.35 0.34 0.32 0.33 0.35 0.31 0.27 0.26 0.26 0.29 0.29 0.28 0.26 0.19 0.29 0.24 0.24 0.25 0.25 0.26 0.28 0.33 0.36 0.31 0.27 0.30 0.32 0.33 0.35 0.39 0.38 0.35 0.33 0.29 0.39 0.33 0.35 0.37 0.40 0.44 0.55 0.56 0.63 0.67 0.71 0.76 0.80 0.86 0.89 0.95 0.96 1.03 1.10 1.13 1.12
0.54 0.47 0.46 0.45 0.57 0.62 0.59 0.63 0.58 0.59 0.58 0.65 0.58 0.57 0.54 0.58 0.62 0.64 0.68 0.57 0.60 0.59 0.57 0.55 0.52 0.49 0.45 0.47 0.41 0.43 0.43 0.42 0.43 0.42 0.37 0.36 0.36 0.35 0.31 0.29 0.27 0.25 0.31 0.24 0.26 0.23 0.21 0.21 0.23 0.26 0.31 0.32 0.37 0.34 0.37 0.34 0.33 0.32 0.30 0.31 0.33 0.34 0.37 0.36 0.33 0.33 0.37 0.35 0.30 0.47 0.44 0.38 0.43 0.53 0.58 0.61 0.69 0.73 0.76 0.82 0.89 0.92 0.93 0.99 1.02 1.07 1.09 1.11
0.49 0.56 0.59 0.65 0.54 0.52 0.52 0.55 0.57 0.56 0.63 0.67 0.64 0.65 0.57 0.55 0.57 0.58 0.64 0.67 0.67 0.63 0.58 0.53 0.53 0.51 0.49 0.44 0.45 0.43 0.43 0.42 0.43 0.42 0.42 0.40 0.39 0.33 0.28 0.26 0.25 0.27 0.27 0.24 0.26 0.23 0.21 0.19 0.23 0.23 0.26 0.31 0.37 0.37 0.36 0.34 0.31 0.34 0.37 0.37 0.34 0.36 0.37 0.34 0.35 0.41 0.40 0.35 0.30 0.48 0.44 0.41 0.49 0.55 0.61 0.65 0.74 0.77 0.82 0.87 0.94 0.95 0.96 1.01 1.05 1.05 1.06 1.04
0.63 0.65 0.63 0.72 0.55 0.60 0.60 0.63 0.60 0.55 0.58 0.61 0.65 0.62 0.58 0.56 0.54 0.60 0.61 0.62 0.65 0.61 0.61 0.53 0.48 0.51 0.50 0.51 0.48 0.45 0.44 0.42 0.41 0.45 0.41 0.39 0.37 0.37 0.29 0.22 0.23 0.27 0.27 0.25 0.25 0.29 0.27 0.22 0.29 0.24 0.26 0.33 0.39 0.37 0.35 0.30 0.33 0.32 0.34 0.36 0.37 0.36 0.36 0.36 0.37 0.42 0.38 0.43 0.37 0.41 0.44 0.50 0.49 0.57 0.69 0.73 0.75 0.81 0.97 0.94 0.93 0.93 0.96 1.00 1.03 1.03 1.01 1.00
0.49 0.55 0.55 0.67 0.65 0.61 0.64 0.65 0.62 0.56 0.53 0.59 0.60 0.60 0.63 0.60 0.56 0.59 0.63 0.61 0.58 0.59 0.62 0.54 0.53 0.54 0.53 0.52 0.51 0.46 0.48 0.50 0.48 0.41 0.45 0.44 0.44 0.40 0.36 0.32 0.23 0.30 0.33 0.26 0.25 0.29 0.27 0.32 0.29 0.29 0.29 0.35 0.39 0.37 0.34 0.32 0.34 0.34 0.38 0.40 0.37 0.35 0.36 0.38 0.40 0.40 0.37 0.36 0.39 0.42 0.46 0.55 0.74 0.68 0.78 0.85 0.92 0.93 0.89 0.88 0.90 0.93 0.99 1.01 1.00 1.00 0.97 0.97
0.68 0.74 0.72 0.58 0.55 0.59 0.62 0.62 0.60 0.56 0.53 0.56 0.57 0.62 0.63 0.63 0.60 0.64 0.62 0.65 0.59 0.57 0.57 0.53 0.56 0.54 0.55 0.55 0.53 0.52 0.56 0.55 0.55 0.54 0.53 0.49 0.41 0.45 0.42 0.34 0.36 0.26 0.28 0.27 0.26 0.32 0.26 0.42 0.39 0.35 0.30 0.35 0.36 0.37 0.36 0.36 0.36 0.40 0.39 0.40 0.38 0.36 0.33 0.36 0.33 0.40 0.36 0.42 0.39 0.44 0.46 0.53 0.68 0.76 0.73 0.79 0.81 0.84 0.82 0.85 0.90 0.96 1.02 1.03 0.98 0.95 0.94 0.96
0.70 0.78 0.76 0.63 0.50 0.58 0.55 0.60 0.61 0.56 0.51 0.58 0.56 0.61 0.60 0.64 0.68 0.68 0.61 0.64 0.65 0.65 0.65 0.61 0.60 0.55 0.55 0.55 0.53 0.54 0.60 0.60 0.60 0.60 0.59 0.58 0.57 0.54 0.51 0.45 0.39 0.36 0.27 0.29 0.30 0.30 0.26 0.34 0.36 0.35 0.29 0.35 0.41 0.37 0.39 0.37 0.39 0.35 0.41 0.43 0.42 0.44 0.49 0.48 0.49 0.45 0.49 0.46 0.41 0.42 0.49 0.63 0.65 0.69 0.67 0.73 0.80 0.85 0.85 0.90 0.94 1.01 1.05 1.02 0.97 0.96 0.97 0.98
Wind_Speed
8 8 8 8 8 8 8 8 8 8 8 8 8 7 7 7 7 6 6 6 6 6 6 5 5 5 5 5 4 4 3 3 4 4 4 3 5 6 6 7 7 8 8 8 9 9 9 9 9 9 10 10 11 12 11 10 9 8 8 9 9 9 9 7 7 6 8 10 11 11 9 8 8 7 6 6 6 6 6 5 5 5 5 6 7 8 9 9
9 8 8 9 9 9 9 9 9 9 9 9 8 8 8 8 7 7 7 6 6 7 7 6 6 6 6 5 5 4 4 4 4 4 4 4 5 6 6 7 7 7 8 8 8 8 8 8 8 8 9 10 11 11 11 11 10 9 9 10 10 9 9 8 8 8 9 10 11 10 8 7 7 7 6 6 6 6 5 5 6 6 6 7 8 8 8 8
9 9 9 9 9 10 10 10 10 10 9 9 9 9 9 8 8 8 7 7 7 7 8 7 7 7 6 6 6 5 5 5 5 5 4 5 6 7 7 7 7 7 7 7 7 7 8 8 7 8 9 10 11 11 11 11 11 11 10 10 10 9 9 9 8 8 9 10 10 9 7 6 6 6 5 5 6 5 4 5 6 7 7 8 8 8 9 8
10 10 10 10 10 10 10 10 10 10 10 10 10 10 9 9 9 8 8 8 8 8 8 8 8 7 7 7 6 6 6 6 6 6 4 5 7 7 7 6 7 7 5 5 6 6 7 8 7 7 8 10 11 10 12 12 11 12 11 11 11 9 9 9 8 9 9 9 9 8 7 6 6 5 5 5 5 5 4 4 5 6 7 8 8 8 8 8
11 11 10 10 10 10 11 11 11 11 11 11 10 10 10 10 9 9 9 9 8 8 8 9 8 8 8 8 7 7 7 6 6 6 5 6 7 8 8 7 7 6 4 5 5 6 7 7 7 7 8 10 11 10 12 12 10 12 13 12 11 9 9 9 9 9 8 8 8 7 6 6 6 5 5 5 4 4 4 4 5 6 8 8 8 8 8 8
11 11 11 11 11 11 11 11 11 11 11 11 11 11 10 10 10 10 10 9 9 9 9 9 9 9 9 9 8 8 8 6 6 6 5 6 8 9 8 8 7 5 4 4 4 5 6 6 6 8 9 9 11 11 11 12 11 11 12 12 12 11 10 9 9 8 7 7 7 6 6 6 6 5 4 4 3 3 3 4 5 6 7 8 7 7 7 7
11 11 12 11 11 11 11 12 11 11 11 12 12 11 11 11 11 11 11 10 10 10 10 9 10 10 10 10 9 10 10 7 6 6 6 7 8 9 8 8 7 5 4 4 4 4 5 5 6 8 9 9 10 11 11 11 11 11 12 12 13 12 11 9 9 8 7 6 6 5 5 5 4 4 4 4 3 3 2 3 5 6 7 8 8 7 7 7
12 12 12 12 12 12 12 12 12 12 12 12 12 12 11 11 11 12 11 11 11 11 11 10 10 10 10 10 10 11 11 8 6 7 7 8 9 9 9 8 6 5 4 4 3 3 4 4 6 8 8 9 10 9 9 9 11 12 12 12 12 12 12 10 9 8 7 6 6 5 4 4 3 3 3 3 3 2 2 3 4 5 7 8 8 8 7 7
12 12 12 12 12 12 12 12 12 12 12 12 12 12 12 12 12 12 12 12 12 12 12 11 11 11 11 11 11 11 11 9 7 7 8 9 9 10 9 7 6 5 5 3 2 2 3 4 6 7 7 9 9 9 8 8 10 11 11 11 11 12 11 10 9 8 7 7 5 4 4 3 3 2 2 2 2 2 3 3 4 5 7 8 8 7 7 6
12 13 13 13 12 12 13 13 12 12 12 12 12 12 12 12 12 12 12 12 12 12 12 12 11 12 12 12 12 12 11 11 9 8 9 9 9 10 9 6 6 6 5 3 2 2 2 4 5 6 5 7 8 8 8 8 9 10 10 11 11 11 11 9 9 9 8 7 5 4 4 4 3 2 1 2 2 3 3 4 4 5 6 7 7 7 7 6
13 13 13 13 13 12 12 13 13 12 12 12 12 12 12 12 12 12 13 13 13 13 13 13 12 12 12 13 14 13 12 12 10 8 9 10 10 10 8 7 7 6 5 4 3 2 2 2 4 4 4 6 7 7 8 9 8 9 10 10 10 10 10 9 9 9 7 7 6 5 5 4 3 2 2 3 2 3 3 3 4 4 5 6 7 7 7 7
13 13 13 13 13 13 12 13 13 12 12 12 12 12 12 12 12 12 13 13 13 13 13 14 14 13 12 14 15 13 13 13 11 10 10 11 10 9 8 7 7 7 6 5 3 2 2 1 1 3 4 5 5 6 8 8 7 7 7 8 9 9 9 9 9 8 7 7 7 6 5 5 4 4 4 3 2 2 2 2 3 4 4 5 6 6 6 6
13 13 13 13 13 13 13 13 13 13 12 12 12 11 12 12 11 12 13 13 14 14 14 14 14 13 13 14 14 14 14 14 13 11 11 11 10 9 8 8 8 7 7 6 3 2 2 2 0 2 3 4 5 6 6 7 6 6 5 6 7 7 8 8 8 7 7 8 7 5 6 6 5 5 5 4 2 2 1 1 2 3 3 4 5 5 6 6
13 13 13 13 13 13 12 13 13 13 12 12 11 11 11 11 11 12 13 13 14 15 15 15 15 14 14 14 13 14 15 15 14 13 12 12 11 10 9 9 8 8 7 6 5 3 3 2 1 1 1 3 4 4 4 5 5 5 5 5 5 6 7 7 7 6 6 7 6 5 6 7 6 5 5 4 3 2 1 1 1 2 2 3 4 5 5 6
14 14 14 14 13 13 12 12 13 13 12 12 11 11 10 10 11 12 13 13 14 15 15 15 15 15 15 15 14 15 15 16 15 14 13 13 12 10 10 10 9 9 8 7 6 5 4 3 2 1 1 2 2 2 3 4 4 4 5 5 5 6 7 7 7 6 6 7 5 5 7 6 6 5 4 3 3 3 2 2 1 1 2 2 3 4 5 5
14 14 14 14 14 13 12 12 13 13 12 11 11 11 10 10 10 12 13 14 14 15 15 16 16 16 16 15 14 15 15 15 15 15 14 14 13 11 10 10 9 9 9 8 7 6 5 4 3 2 0 1 1 1 2 3 3 4 5 6 6 5 5 6 6 5 5 6 5 5 6 6 6 5 4 3 3 2 2 2 1 1 1 2 2 3 3 3
14 14 14 14 14 13 13 12 13 13 12 11 11 11 11 11 11 11 13 14 14 15 15 15 16 16 16 15 15 16 16 15 15 15 15 14 14 12 11 10 10 10 9 8 8 7 6 5 4 2 2 1 0 1 1 3 4 4 5 5 5 5 5 4 4 4 4 5 5 6 6 6 6 5 4 3 2 2 2 2 1 1 1 2 2 2 2 2
14 14 14 14 14 13 13 12 13 12 12 11 11 11 11 12 12 12 13 14 14 15 15 16 17 16 16 16 16 16 15 15 15 16 16 15 15 14 12 11 10 10 10 9 9 9 8 6 5 4 3 2 1 1 1 4 5 5 6 6 4 4 4 4 4 4 4 4 5 5 6 6 6 5 5 3 3 2 2 1 1 0 0 1 1 2 2 2
14 14 14 14 13 13 13 12 13 12 11 11 11 11 11 12 13 13 14 14 15 15 15 16 18 16 15 16 16 15 16 16 16 17 17 16 15 15 14 12 12 12 11 10 10 10 9 7 6 5 4 3 2 1 2 3 4 5 5 5 4 3 3 5 5 4 4 4 5 5 6 6 5 5 5 4 3 3 2 2 1 1 1 1 1 2 3 3
14 14 14 14 13 13 12 12 12 12 11 10 10 11 11 12 12 13 14 15 16 17 16 16 18 18 16 16 16 16 16 17 18 18 18 17 16 16 15 14 13 13 12 10 10 11 9 8 8 7 5 3 2 2 2 3 3 4 4 4 3 2 3 4 4 4 3 4 5 5 5 5 5 5 5 5 4 3 3 2 2 2 2 2 2 2 3 4
14 14 14 14 13 13 12 12 12 11 10 10 10 10 10 10 11 11 12 15 16 17 17 17 18 19 19 17 17 16 16 17 18 18 18 18 17 16 16 15 14 13 13 11 10 10 10 10 9 8 6 4 4 3 3 3 3 4 4 4 2 1 3 4 3 3 2 3 5 5 5 5 5 5 6 5 4 4 4 3 3 3 3 3 3 3 3 4
14 14 14 14 13 12 12 12 12 10 9 9 10 10 9 9 10 11 11 14 15 15 17 17 17 19 19 19 18 18 17 18 19 19 19 18 18 17 15 16 16 14 13 13 11 11 12 12 10 8 6 5 5 4 3 3 4 3 3 3 2 2 3 3 2 3 2 3 5 4 5 5 5 5 5 5 5 5 5 4 4 3 3 3 3 3 3 3
14 14 14 13 13 12 12 12 11 9 9 9 10 10 9 9 10 10 12 13 13 14 15 16 17 18 19 19 19 19 19 18 19 20 20 20 19 18 17 17 17 15 13 14 13 12 11 10 10 9 7 6 6 5 4 4 4 3 3 3 1 2 1 1 1 2 1 3 5 4 4 5 5 5 5 5 5 6 5 5 4 3 3 3 4 4 4 3
14 14 13 13 13 12 12 11 9 8 8 9 10 10 9 10 9 10 12 13 13 13 14 15 16 17 18 18 18 20 20 18 18 19 21 21 19 18 18 17 17 16 15 14 15 14 11 7 8 8 7 7 6 6 5 4 4 2 1 3 1 1 1 1 2 2 1 1 3 4 3 3 5 4 4 5 5 5 5 5 4 4 3 4 4 4 4 4
14 13 13 13 12 11 11 9 6 7 8 9 10 10 9 9 9 10 11 12 12 12 13 14 15 16 17 17 18 19 18 18 18 18 20 22 20 18 18 17 17 16 16 15 15 15 13 10 10 9 8 7 7 6 5 3 4 2 1 2 2 1 1 2 4 2 0 1 2 4 4 3 5 5 4 5 5 5 5 4 4 4 4 4 4 4 4 4
14 13 13 13 12 11 9 5 5 6 8 7 8 9 9 8 8 9 10 10 11 11 12 14 14 15 17 18 18 18 17 18 18 18 20 21 20 18 17 17 17 16 15 15 15 14 13 11 12 12 10 9 8 7 6 4 5 3 0 3 3 2 3 4 4 1 1 2 2 3 4 4 5 6 5 5 5 5 5 4 4 4 4 4 4 5 4 4
13 13 13 12 11 10 7 4 5 7 6 6 7 8 8 8 8 9 9 10 10 10 11 12 13 14 16 18 19 17 16 17 18 18 19 20 20 19 18 17 18 17 15 15 15 14 14 14 13 13 12 10 9 8 6 5 5 3 1 3 3 3 4 4 3 1 2 3 1 2 4 4 4 6 5 5 5 5 5 4 4 4 4 4 5 5 5 4
13 13 13 12 11 9 7 6 6 6 5 5 6 7 7 7 8 8 9 9 8 9 11 11 12 14 15 17 19 18 14 15 17 18 19 20 19 19 19 18 18 18 17 17 15 13 14 15 13 12 12 11 10 7 5 6 6 3 2 3 3 4 4 4 3 1 2 2 2 1 3 4 3 5 5 4 5 4 4 4 4 4 4 4 4 5 5 5
13 13 12 11 10 9 7 6 6 5 5 5 6 6 6 7 8 8 9 8 7 9 10 10 12 14 15 17 19 18 15 15 15 16 19 20 19 18 18 17 18 17 17 18 16 12 13 13 12 12 12 10 8 7 6 7 5 3 3 3 3 4 4 3 3 1 2 3 2 2 3 4 4 5 5 4 5 5 4 4 4 4 4 4 4 5 5 6
12 12 11 10 9 6 5 6 6 6 5 5 5 5 6 7 7 8 9 7 8 9 9 11 12 14 16 17 18 18 17 16 14 15 18 18 19 19 16 16 18 17 16 18 18 14 13 13 12 13 13 10 9 8 8 8 6 5 5 4 4 3 3 3 2 2 3 3 2 3 3 4 4 4 5 5 4 5 4 4 4 4 4 4 4 5 6 6
12 11 10 9 7 5 5 4 4 5 5 5 4 5 5 5 6 7 6 6 7 8 10 12 12 14 17 17 17 18 17 16 15 17 18 17 18 19 17 17 18 17 17 17 19 17 17 16 14 15 14 11 11 10 8 8 8 7 6 5 4 3 3 4 3 3 4 2 2 3 3 4 4 3 4 5 4 4 4 4 4 4 4 4 5 6 6 7
10 10 9 7 5 5 5 4 4 5 5 5 5 6 5 5 6 5 4 6 8 8 9 11 12 14 16 16 16 18 17 16 16 18 17 17 18 18 19 18 17 18 18 17 18 18 18 19 17 16 16 14 12 11 10 9 9 8 7 7 6 4 4 4 3 3 3 2 2 4 3 3 3 3 3 3 4 3 3 4 4 4 4 4 5 5 6 6
9 9 6 4 3 3 4 4 5 5 5 5 6 6 5 5 5 3 4 6 6 6 8 10 12 14 15 16 16 17 17 15 16 17 17 18 18 18 19 18 17 18 16 16 17 17 17 18 19 18 17 16 15 12 10 10 10 10 9 8 7 5 5 5 4 3 3 1 2 3 3 3 2 2 2 3 4 3 3 4 4 4 3 4 4 5 6 6
8 6 3 2 2 2 3 3 4 5 6 6 6 5 5 5 4 4 5 4 5 6 7 9 12 13 14 16 16 16 17 15 16 17 17 18 18 18 18 19 19 18 15 14 16 17 16 16 18 21 18 17 18 16 12 9 10 11 9 8 7 6 5 5 4 3 2 1 1 2 3 3 2 1 1 3 3 2 3 3 4 3 3 4 4 4 5 6
6 3 1 2 1 1 2 3 4 5 6 6 5 5 5 4 3 4 4 4 5 6 7 9 11 12 14 15 15 17 16 15 16 17 17 18 18 18 18 18 20 19 17 16 14 16 17 14 14 18 17 16 18 18 14 10 9 10 9 9 8 6 5 5 5 5 4 3 2 3 3 3 3 1 0 2 1 1 2 2 3 3 3 3 3 4 5 6
3 1 2 2 1 1 2 3 4 5 5 5 5 5 4 2 2 3 4 4 5 6 7 9 10 10 12 14 15 17 16 14 15 16 17 18 18 18 18 17 19 20 19 16 13 14 17 15 14 15 17 17 16 16 16 13 10 9 10 11 8 5 6 6 5 4 5 5 3 3 4 2 1 2 1 1 1 1 0 1 2 2 3 3 3 4 5 6
1 2 2 2 1 1 2 3 4 5 5 5 5 4 3 2 2 3 3 4 4 6 7 8 9 9 11 13 15 17 16 14 15 15 15 16 16 17 19 17 18 20 20 17 14 13 14 15 15 16 18 18 16 15 16 15 12 9 9 9 8 6 7 7 6 5 6 6 3 3 5 3 3 2 2 2 1 1 1 1 1 2 2 2 3 4 5 5
2 3 3 2 1 1 2 3 3 4 5 5 5 4 3 3 2 2 3 3 4 6 7 7 7 8 10 13 14 16 16 14 14 15 14 14 14 15 18 18 17 20 21 19 15 13 14 13 13 16 17 18 17 16 15 15 15 12 8 8 8 8 7 7 7 6 6 6 3 3 4 4 3 1 3 3 2 2 2 1 0 1 1 2 2 3 4 5
4 4 3 2 1 1 2 3 3 5 5 5 5 4 3 3 2 2 2 3 4 5 6 6 6 8 10 11 12 15 16 14 13 14 13 13 12 13 16 17 17 19 21 21 17 14 14 14 12 14 16 17 18 18 15 14 15 15 11 9 10 8 6 6 6 6 6 5 3 3 3 2 2 1 3 3 2 2 2 1 1 1 1 1 2 3 4 5
4 4 3 2 2 1 2 3 4 5 5 5 4 3 3 3 2 1 1 3 4 4 5 5 6 8 10 10 11 13 14 14 13 13 12 13 12 12 14 15 16 18 20 21 19 15 15 14 12 13 16 18 18 18 17 14 14 15 14 12 11 9 7 7 7 6 6 6 4 4 4 1 2 2 2 3 3 3 2 1 1 1 1 1 2 3 4 5
5 5 3 2 2 2 2 3 5 5 5 5 4 4 3 3 2 2 2 3 4 4 4 5 6 8 9 10 10 11 12 12 12 12 12 12 12 11 12 14 15 17 18 19 19 17 15 15 13 12 16 18 18 17 16 14 13 14 14 14 12 11 9 8 7 6 6 6 5 5 4 1 1 3 2 2 3 3 3 1 1 1 0 1 1 3 4 5
6 5 3 2 2 2 3 4 5 5 5 5 4 4 4 3 3 2 3 5 5 5 6 6 6 7 8 8 8 9 10 10 11 12 11 12 13 11 10 12 14 16 17 18 19 18 16 15 14 13 14 15 15 15 15 14 14 13 13 14 13 12 11 10 8 6 6 6 5 6 5 2 1 2 2 2 3 3 3 2 2 1 1 1 1 2 4 5
5 4 4 3 3 3 4 4 5 5 5 4 4 5 5 4 4 3 4 5 6 7 7 7 7 6 7 6 5 7 8 9 10 11 11 11 12 11 10 11 13 14 16 16 18 18 16 16 16 14 14 13 12 13 14 14 15 15 15 14 14 13 13 11 8 7 7 6 5 6 5 2 1 2 2 2 3 3 3 2 1 1 1 1 2 3 4 5
5 5 5 4 4 4 4 5 5 5 5 5 5 6 6 5 4 4 5 5 6 7 7 7 6 5 5 5 4 5 6 7 8 9 9 9 9 9 10 12 13 13 14 15 16 17 17 16 16 16 15 15 15 15 15 15 15 15 15 15 16 15 14 12 9 8 8 7 6 7 4 2 1 2 2 3 3 3 3 1 1 1 1 1 2 3 4 5
6 6 6 5 5 5 5 4 5 5 5 5 6 6 6 6 6 4 5 5 5 6 6 6 6 5 5 5 4 4 5 6 6 7 7 8 8 8 9 12 14 14 14 13 15 17 16 16 17 17 17 17 16 16 15 15 16 15 15 15 16 16 15 13 11 10 9 7 7 7 4 2 3 3 4 4 3 3 2 1 1 1 1 2 2 3 4 5
6 7 7 7 6 6 5 5 6 6 6 5 6 6 5 6 7 6 5 5 5 5 5 6 6 5 5 4 5 5 5 5 5 5 5 6 7 7 8 11 13 14 13 12 15 17 15 15 17 18 16 14 13 12 12 14 15 16 16 16 17 17 17 15 13 11 9 7 7 6 3 4 6 6 5 4 4 3 2 2 1 0 1 2 2 3 4 4
7 7 6 7 7 7 7 6 6 7 7 6 6 6 5 6 6 6 6 6 4 4 5 5 6 5 4 4 4 4 5 6 5 4 4 4 4 6 7 9 12 12 11 13 16 16 15 15 17 18 17 14 11 10 10 13 15 16 16 16 18 18 17 16 15 11 8 8 8 5 4 6 7 7 6 5 4 3 2 2 1 0 1 2 2 3 4 4
8 8 7 7 8 8 8 7 6 7 8 8 7 6 6 5 6 6 6 6 5 4 5 6 5 4 4 3 4 3 4 6 5 3 3 2 3 5 6 7 11 12 12 14 15 14 14 14 15 17 18 16 13 12 11 13 14 14 15 16 17 18 18 18 16 12 11 10 7 5 6 6 6 6 6 5 4 3 1 1 1 0 1 2 2 3 3 4
8 8 8 8 9 8 8 8 8 9 9 9 8 7 6 5 5 6 7 8 6 4 4 5 4 3 4 4 4 3 3 4 3 2 2 1 1 3 4 6 10 12 13 13 13 13 12 12 13 15 16 16 15 14 13 13 14 14 14 15 16 17 17 16 14 13 12 10 7 6 7 5 4 5 5 4 3 2 1 2 1 1 1 2 2 3 3 4
9 9 9 10 10 9 9 9 9 10 11 10 10 8 7 6 5 6 7 8 8 5 4 4 4 4 5 5 5 4 3 3 3 3 2 2 2 3 4 5 9 12 13 12 12 12 11 10 11 13 14 14 14 14 14 14 14 13 13 14 15 16 16 15 14 13 12 10 8 8 8 5 3 4 4 4 3 2 2 2 1 1 1 2 2 2 3 4
9 10 10 11 11 10 10 10 10 11 11 11 10 9 9 8 6 7 8 9 8 7 6 5 6 6 7 7 6 5 4 4 5 5 5 5 4 4 4 6 8 10 12 12 11 11 11 10 9 12 14 13 12 13 13 14 14 13 12 12 14 15 14 13 13 12 11 10 9 10 9 7 5 5 5 4 4 3 3 2 1 1 2 2 2 2 3 4
9 10 11 12 12 11 11 11 11 11 11 11 11 10 10 9 8 8 9 9 9 8 8 8 8 8 8 8 7 6 7 7 8 8 7 7 7 6 7 8 9 10 11 12 11 11 11 10 9 11 13 12 11 11 12 13 15 13 10 10 12 13 12 12 12 11 11 10 9 9 8 7 7 7 6 6 5 4 3 2 2 1 2 2 2 2 2 3
Wind_Direction
308 301 296 294 293 291 291 291 291 291 289 287 284 281 277 273 270 265 260 253 243 234 230 224 217 213 205 201 195 190 192 188 179 178 178 143 118 124 120 112 108 101 93 85 78 73 68 63 59 53 47 41 38 38 37 36 35 39 42 46 49 47 48 51 61 99 131 138 142 147 155 154 142 143 147 150 153 151 149 145 145 138 133 133 136 145 152 156
309 305 300 295 292 291 290 289 288 288 286 284 280 277 275 271 266 262 258 253 244 233 228 223 219 215 209 205 197 196 195 189 195 197 183 153 140 141 132 124 116 109 100 88 81 76 67 62 58 52 45 40 40 38 36 38 37 39 42 47 51 50 53 59 72 99 125 135 143 146 152 154 144 145 154 154 150 155 152 144 149 140 136 141 141 149 157 161
306 306 303 298 293 291 289 288 287 285 284 281 278 274 272 268 264 259 255 250 243 234 226 222 220 216 212 207 200 198 192 193 198 180 161 153 156 155 146 135 126 122 105 86 84 73 58 55 57 52 41 38 41 38 37 39 39 40 42 48 53 56 60 64 77 96 113 128 140 144 150 153 147 152 159 155 148 157 156 148 158 151 147 150 149 154 160 165
303 303 303 301 296 292 290 288 286 284 283 280 276 272 269 265 261 256 251 247 241 233 225 221 218 215 212 207 201 196 192 198 188 164 157 159 161 164 158 145 139 133 105 86 84 68 56 56 59 49 37 39 44 41 41 41 40 42 44 51 54 59 66 68 81 97 110 123 132 138 148 150 149 157 156 154 152 159 163 157 163 159 154 156 156 159 164 169
301 300 300 300 299 295 291 289 286 284 282 279 276 271 267 263 259 255 248 243 238 231 224 220 217 215 212 208 202 194 192 192 179 168 169 165 164 169 164 154 150 139 110 98 85 70 65 62 59 47 38 40 43 42 43 42 42 46 49 53 54 59 71 75 86 99 108 118 125 132 140 137 142 150 149 158 156 150 162 165 166 165 161 159 162 165 170 174
300 299 297 297 298 297 294 290 287 285 282 279 275 270 265 260 257 253 247 241 233 227 223 220 217 214 211 208 203 195 196 191 180 181 176 168 169 171 168 162 159 148 127 113 92 82 74 65 56 42 39 41 41 43 47 46 43 48 54 54 55 60 72 82 90 97 104 113 119 126 131 134 143 147 148 165 157 132 147 170 171 172 170 165 166 170 174 177
300 298 297 296 295 296 296 293 289 285 283 280 275 270 264 258 255 251 246 238 229 223 221 220 216 213 210 208 203 199 202 198 185 187 179 172 171 172 170 167 167 160 148 134 109 93 77 66 48 35 38 44 43 45 50 52 48 50 57 57 57 62 70 80 87 92 99 105 109 117 128 138 148 144 151 175 171 144 136 171 175 173 175 173 172 177 181 183
299 297 296 296 294 294 295 295 292 287 284 280 275 270 264 258 253 248 243 235 226 220 219 219 215 211 208 206 205 204 205 198 189 189 181 173 171 171 170 171 177 173 165 155 125 97 78 61 42 33 40 45 41 45 52 54 50 50 58 61 60 63 68 76 81 87 92 93 101 114 122 130 140 139 158 185 194 184 160 167 173 172 177 181 182 186 191 194
298 297 296 295 294 293 293 293 292 289 285 280 275 269 264 258 251 244 238 231 223 219 218 218 215 210 207 205 206 208 203 195 194 193 184 177 172 172 172 176 185 185 180 173 148 113 82 55 46 37 39 43 40 48 52 49 50 52 59 64 64 65 68 73 76 79 82 83 89 102 107 112 132 147 165 174 185 184 173 174 174 174 181 186 188 192 198 203
299 297 296 295 294 293 292 291 291 290 286 281 274 269 264 257 249 240 232 227 222 220 218 216 212 209 209 206 207 207 200 197 198 195 191 185 177 177 181 186 189 193 192 189 182 148 97 56 49 37 38 42 41 51 50 46 56 60 62 64 65 66 66 67 70 72 73 75 76 79 85 90 111 137 131 134 156 168 171 176 177 180 186 190 193 198 205 213
300 298 297 296 294 293 292 291 289 288 287 282 274 270 263 255 246 237 229 224 221 219 217 214 210 210 211 209 210 208 200 200 200 197 196 191 186 186 190 193 195 200 200 201 198 176 156 72 46 33 43 39 40 55 50 50 63 66 64 65 64 64 65 63 65 69 66 69 68 59 65 79 94 93 81 103 140 161 168 172 182 190 193 197 201 203 211 220
302 300 298 296 295 294 292 291 289 286 285 281 275 270 261 252 244 234 226 222 220 218 216 213 210 210 213 213 213 212 205 204 203 202 200 197 197 196 196 197 200 205 204 207 199 181 193 147 40 25 37 30 41 59 53 55 64 66 64 62 64 64 63 61 62 64 60 64 64 53 60 76 80 71 67 79 109 135 155 168 186 198 203 207 208 211 217 224
303 301 299 298 296 294 293 291 288 286 283 278 275 269 258 250 241 231 224 221 219 217 214 213 211 212 215 215 213 214 210 208 209 208 205 203 205 205 203 202 204 208 207 211 207 182 186 171 170 14 26 26 48 56 56 61 62 65 57 51 62 63 59 58 60 63 58 60 61 54 61 68 67 67 67 69 88 111 131 161 190 202 211 216 215 218 223 228
303 302 300 299 297 295 293 290 288 286 281 275 271 266 257 248 237 228 224 222 218 216 213 212 213 213 217 217 213 214 212 212 213 212 210 208 209 209 207 207 208 209 206 209 210 201 190 172 200 269 23 32 50 61 70 68 60 57 48 46 51 49 56 60 60 63 57 60 64 52 55 62 61 64 69 69 77 85 89 126 178 202 213 221 220 223 229 234
303 302 301 300 298 296 293 289 287 285 279 273 267 261 254 244 235 227 223 221 218 216 213 213 215 215 219 219 214 213 212 212 214 214 212 208 209 211 209 208 208 207 206 206 207 205 198 187 207 228 81 66 61 79 83 68 59 45 35 44 46 47 64 67 63 62 49 56 63 42 45 61 60 59 70 73 74 73 62 73 102 160 192 213 218 226 235 240
304 302 300 300 298 296 294 290 286 284 278 270 264 256 247 239 234 228 224 221 218 216 215 216 215 216 221 217 210 210 210 211 213 213 212 210 211 211 206 206 206 205 205 205 208 208 205 201 212 236 159 127 87 68 64 58 65 51 29 35 41 46 67 69 62 60 47 49 55 40 37 53 59 59 71 73 73 74 58 62 80 118 176 204 217 232 238 244
307 303 301 300 298 296 295 291 287 284 275 267 261 251 243 237 232 228 223 221 220 218 220 220 216 218 221 215 211 211 209 209 210 211 212 212 213 211 207 208 206 203 205 207 210 211 209 207 206 206 206 203 63 13 18 33 46 46 30 31 42 42 48 56 56 61 56 42 45 44 35 42 51 54 63 66 67 67 53 56 76 114 185 210 231 254 249 248
310 306 302 300 298 296 295 291 288 283 273 266 257 247 242 237 233 230 224 222 223 222 223 220 216 217 217 214 214 213 210 210 211 213 213 212 213 212 211 213 210 206 208 209 209 211 209 208 210 210 209 212 216 255 6 31 27 18 16 19 33 45 44 51 63 73 71 44 41 46 40 44 49 46 50 56 57 49 37 35 40 67 224 220 247 283 288 272
312 309 305 302 299 297 295 292 288 281 271 262 251 243 240 236 234 231 226 224 223 222 222 216 213 217 217 216 217 216 215 215 213 213 212 210 210 210 212 214 213 212 211 210 208 209 211 211 211 214 214 213 222 272 346 14 6 357 2 4 9 33 49 56 66 78 76 53 44 40 38 45 49 45 46 49 51 39 28 21 7 2 334 293 282 306 307 294
312 310 308 304 300 298 295 292 288 278 266 255 245 241 238 236 232 226 224 226 226 227 230 224 220 224 224 219 218 218 218 215 214 212 209 208 208 208 209 210 213 214 215 213 206 206 214 219 217 219 221 229 253 276 306 326 337 338 340 350 0 30 59 66 76 88 76 44 39 35 29 36 39 39 43 46 48 40 28 17 360 355 341 324 318 317 307 302
313 311 310 306 302 299 295 292 287 274 261 248 241 241 240 240 235 228 229 230 226 227 231 228 225 225 225 223 221 220 219 215 213 210 208 208 208 208 207 208 212 213 213 211 206 206 214 223 224 225 229 240 257 265 282 299 310 314 324 340 349 65 74 68 78 95 75 22 32 31 16 29 35 31 40 43 41 36 27 17 3 353 347 342 333 322 316 318
315 313 311 307 304 302 297 294 285 268 256 244 239 239 238 238 236 234 235 233 228 225 227 225 224 224 224 224 222 219 218 216 212 209 208 208 209 210 206 207 213 212 208 208 210 211 216 225 227 220 222 233 244 254 268 284 294 298 309 320 332 100 92 69 69 103 86 15 28 23 8 32 38 29 37 34 30 30 24 15 6 357 353 350 347 343 338 339
318 316 313 309 307 304 300 296 282 259 249 245 240 237 235 235 237 235 233 234 230 223 222 222 221 222 221 221 217 214 216 216 212 208 207 208 209 212 210 209 213 214 209 209 212 214 217 223 220 212 218 233 239 244 256 270 275 282 297 308 334 136 143 56 98 131 104 4 16 13 3 32 38 31 35 29 25 25 20 16 8 3 0 356 359 2 359 359
318 317 316 313 309 307 304 297 272 245 247 250 241 235 234 236 238 235 231 233 229 219 219 220 219 220 218 215 211 210 213 214 212 207 205 208 209 211 213 212 213 215 214 212 214 218 221 214 201 205 218 229 236 237 246 265 268 272 316 317 336 192 274 31 108 134 126 342 359 355 349 31 37 29 35 32 27 21 17 15 12 12 12 8 7 9 11 14
315 315 316 314 311 310 307 292 249 240 257 250 236 230 233 237 237 233 230 230 224 217 216 216 217 217 214 210 208 210 213 213 213 208 204 208 209 208 213 214 213 216 215 213 215 221 226 213 203 216 225 224 232 236 239 258 270 271 52 337 329 231 209 109 126 142 141 347 349 340 347 38 44 30 31 30 21 21 20 13 19 29 27 22 18 19 24 27
311 312 312 311 312 313 308 277 236 259 264 243 228 226 230 238 234 227 228 226 219 215 213 213 214 212 208 207 205 207 211 211 209 208 206 208 210 210 213 211 213 217 214 212 218 223 222 213 213 226 232 229 233 235 233 242 263 271 314 320 307 210 179 153 155 199 354 16 354 334 345 17 39 31 28 25 15 21 24 16 25 36 37 34 29 30 31 28
309 310 308 307 309 313 304 269 264 270 254 230 222 224 230 236 228 220 224 222 216 217 214 211 213 209 206 206 202 204 210 205 203 207 207 208 208 211 213 211 212 216 214 213 219 221 218 216 220 225 227 227 229 229 220 229 256 277 295 290 269 205 190 177 192 281 4 15 338 337 342 341 20 24 16 20 13 14 21 19 27 35 40 40 34 38 37 29
308 308 306 303 302 302 288 272 272 260 239 224 218 223 230 228 219 217 224 220 211 216 214 209 211 209 206 205 203 207 208 202 204 207 207 208 208 210 214 215 214 214 213 215 217 217 215 216 217 217 219 221 224 225 217 231 251 264 261 262 240 207 197 197 228 285 354 324 309 14 340 327 19 25 10 18 14 8 14 17 25 35 40 42 36 37 38 34
307 307 304 300 297 290 275 265 258 243 230 218 215 223 224 216 213 216 225 222 213 216 215 207 207 206 203 202 204 208 207 205 209 206 203 207 210 211 215 216 215 214 214 217 218 216 213 215 217 218 220 219 218 219 222 235 245 229 224 230 212 201 196 215 241 263 305 295 317 3 329 324 11 25 13 14 14 12 15 17 27 35 39 41 36 37 39 39
307 305 301 299 294 280 265 256 245 233 221 212 215 218 211 207 211 218 219 216 214 214 212 208 206 202 200 200 203 207 208 206 206 203 202 206 208 211 214 214 215 218 217 218 222 223 218 217 220 221 221 222 220 217 221 232 232 214 211 201 186 192 203 229 244 271 279 273 324 340 321 318 341 17 14 9 11 11 12 20 30 33 37 41 37 38 39 39
307 303 299 295 286 269 256 245 230 219 210 210 208 201 199 200 214 226 218 211 215 211 207 207 204 200 201 202 203 204 207 208 205 204 205 205 206 209 211 212 214 218 219 220 223 224 222 220 220 218 218 222 222 218 216 220 218 214 213 207 202 206 224 235 227 249 271 280 325 318 316 313 327 9 14 11 14 7 3 13 27 31 37 46 43 39 37 35
307 301 297 287 271 255 248 235 219 208 200 201 198 193 200 208 214 225 209 207 216 211 208 206 201 201 202 205 206 203 206 209 207 208 208 206 208 209 210 212 212 213 218 221 220 221 223 223 221 218 217 219 220 216 212 213 215 216 216 219 226 229 232 238 233 245 268 285 289 300 309 302 328 9 8 16 21 14 11 11 21 34 40 51 48 40 36 31
308 303 295 272 244 238 240 230 216 207 198 198 199 196 213 226 217 208 200 206 212 206 207 203 198 201 204 206 206 203 205 209 207 210 211 209 211 210 210 214 214 213 218 219 217 218 221 220 219 219 218 217 217 215 212 212 214 216 215 219 231 244 246 245 250 260 267 268 277 299 302 290 317 17 15 29 25 19 24 18 22 34 40 50 47 39 36 31
309 302 283 218 211 228 229 215 203 198 193 192 195 201 222 233 212 203 209 204 201 200 201 200 199 203 207 208 205 202 206 210 208 210 210 210 213 213 211 213 214 215 218 218 217 218 218 217 216 216 215 211 212 217 221 222 217 216 219 227 238 254 259 258 267 283 297 286 274 285 289 304 326 1 16 23 23 23 32 34 37 42 46 48 43 34 30 27
307 289 207 173 182 199 197 190 183 181 183 189 200 213 227 229 201 205 212 199 200 201 196 198 201 204 207 208 205 203 208 210 207 210 212 211 213 214 213 212 211 213 216 216 217 217 220 223 213 209 210 208 210 216 222 227 222 214 218 227 236 251 261 265 270 289 302 281 260 271 287 330 339 278 292 354 14 47 41 49 55 56 55 45 34 29 23 20
298 199 176 174 157 144 161 169 169 174 184 197 208 217 224 223 208 213 210 205 208 202 193 197 202 205 202 202 202 202 206 209 205 208 212 213 216 217 216 213 209 210 212 213 215 215 220 223 211 206 211 210 211 215 215 221 222 212 217 224 229 252 261 260 256 256 274 272 262 275 279 304 301 243 207 271 321 90 103 72 66 63 59 38 28 25 18 16
248 182 180 169 149 147 163 164 168 178 191 203 212 219 215 200 204 208 202 208 213 205 201 200 202 206 198 195 199 200 202 206 205 207 209 210 216 217 215 213 210 209 211 215 219 217 220 221 211 210 213 207 209 216 215 219 222 215 220 221 218 242 250 250 256 249 253 262 262 276 278 270 262 237 190 221 233 184 194 131 68 68 65 36 29 23 15 14
217 199 188 170 157 166 177 178 181 188 194 200 207 212 202 184 185 199 203 211 208 202 207 206 203 204 197 194 196 195 196 200 199 203 206 206 210 213 212 213 211 210 211 215 217 215 218 218 208 207 210 203 204 214 213 216 221 224 231 226 221 238 239 230 246 256 257 264 263 266 276 282 282 233 186 207 212 196 192 166 40 55 65 30 32 26 12 9
209 201 191 186 201 198 186 189 191 192 193 196 195 186 185 186 183 196 210 208 198 194 202 204 197 198 195 192 190 188 192 197 195 200 206 206 206 209 210 212 210 209 210 212 215 214 213 217 211 204 204 201 203 211 213 212 216 223 231 229 224 238 248 236 242 255 264 271 271 263 266 297 327 276 202 200 195 197 194 189 313 1 62 18 18 17 10 5
206 204 191 194 220 208 190 195 193 192 191 190 187 175 178 188 179 177 184 188 188 183 185 184 177 182 184 184 184 186 192 200 200 201 204 204 205 208 208 210 210 208 208 210 213 212 208 213 214 200 198 203 206 210 215 216 214 216 221 222 219 226 240 244 242 248 262 268 268 272 276 309 329 291 234 191 185 199 196 191 314 330 43 11 6 8 4 1
209 209 192 197 225 207 204 204 188 186 188 182 181 177 176 182 180 167 156 168 177 171 169 170 164 167 170 175 182 186 192 201 203 204 205 204 209 211 207 209 209 204 205 209 211 210 207 210 214 205 200 207 209 210 217 224 221 218 219 221 222 224 230 237 236 235 250 259 266 277 287 319 310 282 251 191 189 201 200 221 306 281 278 342 359 360 354 352
214 214 197 205 223 210 215 204 178 180 188 180 180 183 178 182 188 172 151 157 163 156 154 157 154 157 164 172 181 186 194 203 204 207 210 207 211 212 202 204 207 203 204 209 209 208 209 212 216 213 205 205 207 211 219 226 228 228 226 226 228 228 228 235 240 238 239 245 257 269 275 299 306 277 256 199 187 198 215 254 288 264 275 319 347 354 347 346
223 219 205 211 218 212 216 199 179 184 187 180 186 187 182 182 184 172 158 155 155 151 148 147 145 148 154 165 179 185 194 204 206 210 213 212 214 212 200 199 204 203 205 208 206 205 208 212 214 215 211 208 208 210 215 221 225 228 228 228 230 230 229 234 243 248 242 238 250 263 262 253 250 258 242 197 186 203 226 258 291 304 308 318 349 347 340 344
233 226 215 218 217 215 217 201 190 190 184 184 187 178 175 180 181 173 164 154 150 153 150 142 140 141 141 148 164 174 185 196 198 204 211 213 211 208 204 204 204 205 206 207 204 202 206 211 211 213 212 210 210 211 211 215 220 226 228 226 227 228 229 232 236 242 244 244 258 272 269 229 213 226 214 199 197 208 222 259 311 327 301 319 346 338 337 345
233 223 217 218 215 216 215 202 203 201 191 193 190 177 176 177 173 175 176 165 157 160 156 145 141 139 137 142 149 153 169 182 184 189 200 208 205 200 206 209 208 209 208 207 204 201 205 209 209 212 212 210 214 217 217 219 220 223 227 225 223 223 224 226 229 233 239 245 258 270 270 210 194 196 195 199 207 212 222 257 281 331 351 347 343 334 338 342
235 224 218 216 213 215 209 203 210 209 201 201 193 186 190 182 172 176 182 174 164 165 162 152 153 152 145 150 154 143 148 168 175 177 186 203 207 200 202 208 211 211 206 203 203 203 207 210 210 216 219 216 219 222 222 224 223 222 225 224 221 221 221 224 229 233 238 247 254 262 253 197 190 190 195 201 208 216 234 247 233 332 354 343 337 334 336 333
236 230 227 223 219 216 211 207 212 210 207 209 202 196 201 193 183 182 181 179 178 184 180 163 156 159 150 154 164 147 141 157 163 167 176 196 209 198 197 207 211 208 200 201 204 203 208 213 213 218 222 221 224 224 222 225 226 227 229 225 220 219 219 223 228 231 236 243 247 247 227 205 192 189 197 202 207 223 243 241 223 300 331 328 332 329 327 326
234 229 229 229 225 222 218 218 222 218 213 213 210 207 205 197 191 191 193 198 197 193 192 176 159 158 157 162 172 160 156 163 156 150 169 189 206 195 193 198 198 196 195 197 198 199 208 213 212 216 221 222 225 226 225 227 227 227 229 225 220 218 220 223 228 229 233 242 251 241 223 212 196 195 197 195 205 223 223 196 191 223 316 326 331 327 324 326
237 231 229 230 230 229 229 230 230 224 217 214 212 210 211 206 200 202 207 209 201 190 194 190 178 177 178 181 182 161 160 174 169 161 178 202 216 193 186 184 183 186 191 191 191 198 208 210 210 215 220 221 223 226 227 228 225 223 224 223 220 219 221 225 228 228 230 241 253 234 214 206 207 204 190 184 203 208 150 150 168 193 312 329 330 329 328 332
238 237 238 237 233 230 232 232 229 223 217 215 214 214 218 218 216 220 218 213 209 207 209 210 218 222 204 195 189 170 161 189 209 219 231 236 218 189 180 178 177 182 189 190 190 196 203 205 207 213 216 216 218 223 224 223 220 217 218 219 218 218 219 222 224 226 229 237 240 223 208 205 214 195 172 181 200 183 158 159 175 233 299 321 323 330 336 341
239 238 241 241 233 229 232 231 228 224 219 216 217 219 221 220 229 236 223 213 218 221 222 232 244 239 221 205 197 193 205 229 235 241 247 241 227 215 202 190 184 184 189 191 192 195 200 203 205 211 213 211 212 217 216 212 211 210 210 212 214 216 218 220 222 225 229 229 223 218 216 215 210 192 179 190 193 182 182 185 197 262 307 318 317 331 343 349
246 239 239 240 234 229 232 230 227 226 221 218 219 223 225 225 232 234 220 210 215 220 227 241 246 239 225 212 213 232 246 247 245 246 244 235 228 226 218 206 199 195 192 193 196 198 202 206 206 209 212 210 210 212 207 205 208 209 208 212 217 218 219 220 220 224 228 227 223 225 225 213 202 194 189 193 195 194 200 206 221 271 310 314 315 336 352 359